TimeEST,TemperatureF,Dew PointF,Humidity,Sea Level PressureIn,VisibilityMPH,Wind Direction,Wind SpeedMPH,Gust SpeedMPH,PrecipitationIn,Events,Conditions,WindDirDegrees,DateUTC
12:53 AM,28.0,17.1,63,29.65,8.0,NW,21.9,35.7,0.00,,Clear,310,2014-02-16 05:53:00
1:53 AM,27.0,16.0,63,29.69,5.0,NW,20.7,42.6,0.00,,Clear,310,2014-02-16 06:53:00
2:53 AM,26.1,15.1,63,29.73,10.0,NW,19.6,31.1,0.00,,Clear,310,2014-02-16 07:53:00
3:53 AM,26.1,14.0,60,29.75,10.0,NW,17.3,25.3,0.00,,Clear,310,2014-02-16 08:53:00
4:53 AM,26.1,12.9,58,29.80,10.0,WNW,13.8,23.0,N/A,,Clear,300,2014-02-16 09:53:00
5:53 AM,25.0,12.0,58,29.82,10.0,WNW,13.8,-,N/A,,Clear,300,2014-02-16 10:53:00
6:53 AM,21.9,10.9,63,29.86,10.0,West,8.1,-,N/A,,Clear,270,2014-02-16 11:53:00
7:53 AM,24.1,10.9,57,29.89,10.0,WNW,16.1,25.3,N/A,,Clear,290,2014-02-16 12:53:00
8:53 AM,25.0,10.9,55,29.89,10.0,WNW,18.4,28.8,N/A,,Clear,300,2014-02-16 13:53:00
9:53 AM,26.1,10.9,53,29.88,10.0,NW,13.8,24.2,N/A,,Clear,310,2014-02-16 14:53:00
10:53 AM,27.0,12.0,53,29.92,10.0,WNW,13.8,21.9,N/A,,Clear,300,2014-02-16 15:53:00
11:53 AM,28.0,10.9,49,29.92,10.0,West,16.1,-,N/A,,Clear,270,2014-02-16 16:53:00
12:53 PM,28.9,10.9,47,29.91,10.0,West,16.1,23.0,N/A,,Clear,270,2014-02-16 17:53:00
1:53 PM,30.0,10.9,45,29.90,10.0,WNW,10.4,-,N/A,,Clear,300,2014-02-16 18:53:00
2:53 PM,30.0,10.9,45,29.91,10.0,West,11.5,-,N/A,,Clear,260,2014-02-16 19:53:00
3:53 PM,28.9,10.0,45,29.91,10.0,West,11.5,-,N/A,,Overcast,270,2014-02-16 20:53:00
4:53 PM,28.9,10.0,45,29.93,10.0,West,11.5,-,N/A,,Overcast,270,2014-02-16 21:53:00
5:53 PM,28.0,10.9,49,29.94,10.0,West,6.9,-,N/A,,Overcast,270,2014-02-16 22:53:00
6:53 PM,28.0,12.0,51,29.96,10.0,WNW,9.2,-,N/A,,Overcast,290,2014-02-16 23:53:00
7:42 PM,26.6,15.8,64,29.99,5.0,West,10.4,-,0.00,Snow,Light Snow,280,2014-02-17 00:42:00
7:53 PM,25.0,16.0,69,29.99,2.0,WNW,10.4,-,0.00,Snow,Light Snow,290,2014-02-17 00:53:00
8:07 PM,24.8,17.6,74,29.99,3.0,WNW,9.2,-,0.00,Snow,Light Snow,290,2014-02-17 01:07:00
8:20 PM,24.8,17.6,74,30.00,2.0,WNW,10.4,-,0.00,Snow,Light Snow,290,2014-02-17 01:20:00
8:27 PM,24.8,17.6,74,30.00,1.8,West,11.5,-,0.00,Snow,Light Snow,280,2014-02-17 01:27:00
8:34 PM,24.8,17.6,74,30.00,2.0,WNW,10.4,-,0.00,Snow,Light Snow,290,2014-02-17 01:34:00
8:53 PM,25.0,18.0,75,30.01,3.0,WNW,11.5,-,0.00,Snow,Light Snow,290,2014-02-17 01:53:00
9:13 PM,24.8,17.6,74,30.01,4.0,WNW,6.9,-,0.00,Snow,Light Snow,290,2014-02-17 02:13:00
9:53 PM,24.1,18.0,77,30.01,5.0,WNW,9.2,-,0.00,,Haze,290,2014-02-17 02:53:00
10:05 PM,24.8,17.6,74,30.01,6.0,WNW,10.4,-,N/A,,Haze,290,2014-02-17 03:05:00
10:53 PM,24.1,18.0,77,30.03,9.0,NW,15.0,-,0.00,,Overcast,310,2014-02-17 03:53:00
11:14 PM,24.8,17.6,74,30.03,6.0,WNW,13.8,-,0.00,Snow,Light Snow,300,2014-02-17 04:14:00
11:53 PM,24.1,17.1,75,30.05,10.0,NW,13.8,-,0.00,,Overcast,310,2014-02-17 04:53:00